Meteo Giornale » Osservazioni meteo India » Coimbatore-Peelamedu
ore: 08:30 - Osservazioni Meteo Coimbatore-Peelamedu
Lat. 11° 2' N Lon. 77° 3' E Alt. 396 metri s.l.m.
26 °C
Foschia
Temp. 24 Ore
24 °C
34 °C
Sud-Ovest
18.5 Km/h
Dew point 22 °C
Umidità 78 %
Visibilità 5 Km
Il sole sorge alle ore 06:11
Il sole tramonta alle ore 18:31
| Data e Ora | Cielo e Fenomeni | T °C | DP °C | Um. % | Pres. hPa | Vis. km | Vento km/h | |
|---|---|---|---|---|---|---|---|---|
| Oggi h: 08:30 | Foschia | 26 | 22 | 78 | 1014 | 5 | SO 18.5 | |
| Oggi h: 08:00 | Foschia | 26 | 22 | 78 | 1014 | 4 | S/SO 14.8 | |
| Oggi h: 07:30 | Foschia | 25 | 22 | 83 | 1014 | 4 | SO 18.5 | |
| Oggi h: 07:00 | Foschia | 24 | 23 | 94 | 1013 | 5 | SO 14.8 | |
| Oggi h: 06:30 | Foschia | 24 | 22 | 88 | 1013 | 4 | SO 14.8 | |
| Oggi h: 06:00 | Foschia | 24 | 22 | 88 | 1013 | 4 | SO 14.8 | |
| Oggi h: 05:30 | Foschia | 24 | 22 | 88 | 1012 | 4 | SO 13 | |
| Oggi h: 05:00 | Foschia | 24 | 23 | 94 | 1012 | 4 | SO 16.7 | |
| Oggi h: 04:30 | Foschia | 24 | 23 | 94 | 1012 | 4 | SO 14.8 | |
| Oggi h: 04:00 | Foschia | 24 | 23 | 94 | 1012 | 4 | SO 16.7 | |
| Oggi h: 03:30 | Foschia | 24 | 23 | 94 | 1013 | 4 | S/SO 14.8 | |
| Oggi h: 03:00 | Foschia | 24 | 23 | 94 | 1013 | 4 | SO 14.8 | |
| Oggi h: 02:30 | Foschia | 24 | 22 | 88 | 1013 | 4 | SO 14.8 | |
| Oggi h: 02:00 | Foschia | 24 | 22 | 88 | 1013 | 4 | SO 14.8 | |
| Oggi h: 01:30 | Foschia | 24 | 22 | 88 | 1013 | 4 | S/SO 11.1 | |
| Oggi h: 00:30 | Foschia | 25 | 22 | 83 | 1014 | 4 | S/SO 13 | |
| Ieri h: 23:30 | Foschia | 25 | 22 | 83 | 1015 | 5 | SO 14.8 | |
| Ieri h: 23:00 | Foschia | 25 | 22 | 83 | 1015 | 5 | SO 18.5 | |
| Ieri h: 22:30 | Foschia | 25 | 22 | 83 | 1015 | 5 | SO 22.2 | |
| Ieri h: 22:00 | Foschia | 25 | 22 | 83 | 1015 | 5 | S/SO 18.5 | |
| Ieri h: 21:30 | Foschia | 26 | 22 | 78 | 1014 | 5 | SO 18.5 | |
| Ieri h: 21:00 | Foschia | 26 | 22 | 78 | 1014 | 5 | SO 14.8 | |
| Ieri h: 20:30 | Foschia | 26 | 22 | 78 | 1014 | 5 | SO 18.5 | |
| Ieri h: 20:00 | Foschia | 27 | 22 | 74 | 1013 | 5 | SO 20.3 | |
| Ieri h: 19:30 | Foschia | 27 | 22 | 74 | 1013 | 5 | SO 24 | |
| Ieri h: 19:00 | Foschia | 27 | 22 | 74 | 1012 | 5 | SO 22.2 | |
| Ieri h: 18:30 | Nuvoloso | 28 | 22 | 69 | 1012 | 6 | SO 25.9 | |
| Ieri h: 18:00 | Molto Nuvoloso | 29 | 22 | 66 | 1012 | 6 | SO 25.9 | |
| Ieri h: 17:30 | Molto Nuvoloso | 29 | 22 | 66 | 1011 | 6 | SO 22.2 | |
| Ieri h: 17:00 | Molto Nuvoloso | 30 | 22 | 62 | 1011 | 7 | SO 24 | |
| Ieri h: 16:30 | Nuvoloso | 31 | 22 | 58 | 1010 | 7 | SO 25.9 | |
| Ieri h: 16:00 | Nuvoloso | 32 | 21 | 52 | 1010 | 7 | SO 22.2 | |
| Ieri h: 15:30 | Nuvoloso | 34 | 20 | 43 | 1010 | 7 | SO 22.2 | |
| Ieri h: 15:00 | Molto Nuvoloso | 34 | 20 | 43 | 1010 | 7 | SO 13 | |
| Ieri h: 14:30 | Molto Nuvoloso | 34 | 20 | 43 | 1011 | 7 | SO 13 | |
| Ieri h: 14:00 | Nuvoloso | 33 | 22 | 52 | 1011 | 7 | SO 25.9 | |
| Ieri h: 13:30 | Nuvoloso | 32 | 21 | 52 | 1011 | 7 | SO 22.2 | |
| Ieri h: 13:00 | Nuvoloso | 32 | 21 | 52 | 1012 | 7 | S/SO 22.2 | |
| Ieri h: 12:30 | Poco Nuvoloso | 32 | 21 | 52 | 1012 | 7 | O/SO 14.8 | |
| Ieri h: 12:00 | Poco Nuvoloso | 32 | 21 | 52 | 1013 | 7 | O 7.4 | |
| Ieri h: 11:30 | Poco Nuvoloso | 31 | 21 | 55 | 1013 | 7 | O/SO 14.8 | |
| Ieri h: 11:00 | Poco Nuvoloso | 30 | 21 | 58 | 1013 | 6 | O/SO 11.1 | |
| Ieri h: 10:30 | Poco Nuvoloso | 29 | 22 | 66 | 1014 | 6 | SO 11.1 | |
| Ieri h: 10:00 | Foschia | 28 | 22 | 69 | 1014 | 5 | SO 14.8 | |
| Ieri h: 09:30 | Foschia | 28 | 22 | 69 | 1014 | 5 | SO 9.3 | |



